Year,Month,Day,Hour,Minute,Value (Times are PST for windspeed in km/hr)
2007,03,12,00,00,13.90
2007,03,12,00,01,8.10
2007,03,12,00,02,10.10
2007,03,12,00,03,8.70
2007,03,12,00,04,6.60
2007,03,12,00,05,13.10
2007,03,12,00,06,7.10
2007,03,12,00,07,9.60
2007,03,12,00,08,8.40
2007,03,12,00,09,12.20
2007,03,12,00,10,8.20
2007,03,12,00,11,17.30
2007,03,12,00,12,14.50
2007,03,12,00,13,10.30
2007,03,12,00,14,10.90
2007,03,12,00,15,12.40
2007,03,12,00,16,13.00
2007,03,12,00,17,8.60
2007,03,12,00,18,13.90
2007,03,12,00,19,7.20
2007,03,12,00,20,14.70
2007,03,12,00,21,14.50
2007,03,12,00,22,16.30
2007,03,12,00,23,16.30
2007,03,12,00,24,7.70
2007,03,12,00,25,13.70
2007,03,12,00,26,16.60
2007,03,12,00,27,7.20
2007,03,12,00,28,9.30
2007,03,12,00,29,12.70
2007,03,12,00,30,12.60
2007,03,12,00,31,15.50
2007,03,12,00,32,19.50
2007,03,12,00,33,13.00
2007,03,12,00,34,14.40
2007,03,12,00,35,22.90
2007,03,12,00,36,13.60
2007,03,12,00,37,14.60
2007,03,12,00,38,7.50
2007,03,12,00,39,13.00
2007,03,12,00,40,16.10
2007,03,12,00,41,12.10
2007,03,12,00,42,9.70
2007,03,12,00,43,10.30
2007,03,12,00,44,13.80
2007,03,12,00,45,19.80
2007,03,12,00,46,11.00
2007,03,12,00,47,11.10
2007,03,12,00,48,13.30
2007,03,12,00,49,12.20
2007,03,12,00,50,18.90
2007,03,12,00,51,20.20
2007,03,12,00,52,19.70
2007,03,12,00,53,9.90
2007,03,12,00,54,10.30
2007,03,12,00,55,9.20
2007,03,12,00,56,22.90
2007,03,12,00,57,10.00
2007,03,12,00,58,14.40
2007,03,12,00,59,9.30
2007,03,12,01,00,17.40
2007,03,12,01,01,14.50
2007,03,12,01,02,14.50
2007,03,12,01,03,8.80
2007,03,12,01,04,9.40
2007,03,12,01,05,13.70
2007,03,12,01,06,9.40
2007,03,12,01,07,14.10
2007,03,12,01,08,19.00
2007,03,12,01,09,9.10
2007,03,12,01,10,10.20
2007,03,12,01,11,15.90
2007,03,12,01,12,18.50
2007,03,12,01,13,19.40
2007,03,12,01,14,20.20
2007,03,12,01,15,12.20
2007,03,12,01,16,11.40
2007,03,12,01,17,10.10
2007,03,12,01,18,20.00
2007,03,12,01,19,19.00
2007,03,12,01,20,20.30
2007,03,12,01,21,11.10
2007,03,12,01,22,18.50
2007,03,12,01,23,13.70
2007,03,12,01,24,14.70
2007,03,12,01,25,8.60
2007,03,12,01,26,7.50
2007,03,12,01,27,8.10
2007,03,12,01,28,10.40
2007,03,12,01,29,18.30
2007,03,12,01,30,12.10
2007,03,12,01,31,17.30
2007,03,12,01,32,12.20
2007,03,12,01,33,22.20
2007,03,12,01,34,12.80
2007,03,12,01,35,18.80
2007,03,12,01,36,15.20
2007,03,12,01,37,7.70
2007,03,12,01,38,9.20
2007,03,12,01,39,6.90
2007,03,12,01,40,8.10
2007,03,12,01,41,14.10
2007,03,12,01,42,10.30
2007,03,12,01,43,10.50
2007,03,12,01,44,17.70
2007,03,12,01,45,21.40
2007,03,12,01,46,16.50
2007,03,12,01,47,24.30
2007,03,12,01,48,19.20
2007,03,12,01,49,9.80
2007,03,12,01,50,11.40
2007,03,12,01,51,13.80
2007,03,12,01,52,18.20
2007,03,12,01,53,14.30
2007,03,12,01,54,14.00
2007,03,12,01,55,13.20
2007,03,12,01,56,13.40
2007,03,12,01,57,15.00
2007,03,12,01,58,17.10
2007,03,12,01,59,15.80
2007,03,12,02,00,21.00
2007,03,12,02,01,20.00
2007,03,12,02,02,21.90
2007,03,12,02,03,17.00
2007,03,12,02,04,22.10
2007,03,12,02,05,18.00
2007,03,12,02,06,13.90
2007,03,12,02,07,18.40
2007,03,12,02,08,18.80
2007,03,12,02,09,14.70
2007,03,12,02,10,16.20
2007,03,12,02,11,16.50
2007,03,12,02,12,10.00
2007,03,12,02,13,21.10
2007,03,12,02,14,20.10
2007,03,12,02,15,15.40
2007,03,12,02,16,9.80
2007,03,12,02,17,12.10
2007,03,12,02,18,9.40
2007,03,12,02,19,10.50
2007,03,12,02,20,10.30
2007,03,12,02,21,18.10
2007,03,12,02,22,6.60
2007,03,12,02,23,8.60
2007,03,12,02,24,13.60
2007,03,12,02,25,11.20
2007,03,12,02,26,15.50
2007,03,12,02,27,14.10
2007,03,12,02,28,20.60
2007,03,12,02,29,22.70
2007,03,12,02,30,13.10
2007,03,12,02,31,16.40
2007,03,12,02,32,18.80
2007,03,12,02,33,12.40
2007,03,12,02,34,15.00
2007,03,12,02,35,14.60
2007,03,12,02,36,22.00
2007,03,12,02,37,23.10
2007,03,12,02,38,17.70
2007,03,12,02,39,18.70
2007,03,12,02,40,20.00
2007,03,12,02,41,15.20
2007,03,12,02,42,15.80
2007,03,12,02,43,15.60
2007,03,12,02,44,11.50
2007,03,12,02,45,26.50
2007,03,12,02,46,16.30
2007,03,12,02,47,12.40
2007,03,12,02,48,11.50
2007,03,12,02,49,16.30
2007,03,12,02,50,18.00
2007,03,12,02,51,35.40
2007,03,12,02,52,20.50
2007,03,12,02,53,16.20
2007,03,12,02,54,18.90
2007,03,12,02,55,21.10
2007,03,12,02,56,19.60
2007,03,12,02,57,21.20
2007,03,12,02,58,15.70
2007,03,12,02,59,19.10
2007,03,12,03,00,15.80
2007,03,12,03,01,23.80
2007,03,12,03,02,22.70
2007,03,12,03,03,19.30
2007,03,12,03,04,13.00
2007,03,12,03,05,21.90
2007,03,12,03,06,31.30
2007,03,12,03,07,18.80
2007,03,12,03,08,16.00
2007,03,12,03,09,25.40
2007,03,12,03,10,24.80
2007,03,12,03,11,21.40
2007,03,12,03,12,23.80
2007,03,12,03,13,27.50
2007,03,12,03,14,15.20
2007,03,12,03,15,26.40
2007,03,12,03,16,32.70
2007,03,12,03,17,17.30
2007,03,12,03,18,27.40
2007,03,12,03,19,16.40
2007,03,12,03,20,17.80
2007,03,12,03,21,8.90
2007,03,12,03,22,13.90
2007,03,12,03,23,21.40
2007,03,12,03,24,34.80
2007,03,12,03,25,36.10
2007,03,12,03,26,27.20
2007,03,12,03,27,21.90
2007,03,12,03,28,16.70
2007,03,12,03,29,28.60
2007,03,12,03,30,25.50
2007,03,12,03,31,25.80
2007,03,12,03,32,17.10
2007,03,12,03,33,18.30
2007,03,12,03,34,28.20
2007,03,12,03,35,19.70
2007,03,12,03,36,22.80
2007,03,12,03,37,15.40
2007,03,12,03,38,26.00
2007,03,12,03,39,27.40
2007,03,12,03,40,30.00
2007,03,12,03,41,27.40
2007,03,12,03,42,29.10
2007,03,12,03,43,11.30
2007,03,12,03,44,20.80
2007,03,12,03,45,27.00
2007,03,12,03,46,28.70
2007,03,12,03,47,31.90
2007,03,12,03,48,22.00
2007,03,12,03,49,18.60
2007,03,12,03,50,19.80
2007,03,12,03,51,9.70
2007,03,12,03,52,33.00
2007,03,12,03,53,25.80
2007,03,12,03,54,18.70
2007,03,12,03,55,31.20
2007,03,12,03,56,20.20
2007,03,12,03,57,28.40
2007,03,12,03,58,24.20
2007,03,12,03,59,21.60
2007,03,12,04,00,19.70
2007,03,12,04,01,26.60
2007,03,12,04,02,20.30
2007,03,12,04,03,21.10
2007,03,12,04,04,27.70
2007,03,12,04,05,18.30
2007,03,12,04,06,20.30
2007,03,12,04,07,19.20
2007,03,12,04,08,11.50
2007,03,12,04,09,32.30
2007,03,12,04,10,14.70
2007,03,12,04,11,17.90
2007,03,12,04,12,23.70
2007,03,12,04,13,15.80
2007,03,12,04,14,17.40
2007,03,12,04,15,21.10
2007,03,12,04,16,25.20
2007,03,12,04,17,20.40
2007,03,12,04,18,23.30
2007,03,12,04,19,26.60
2007,03,12,04,20,22.00
2007,03,12,04,21,21.20
2007,03,12,04,22,23.20
2007,03,12,04,23,16.70
2007,03,12,04,24,19.40
2007,03,12,04,25,21.00
2007,03,12,04,26,22.60
2007,03,12,04,27,30.70
2007,03,12,04,28,33.10
2007,03,12,04,29,17.90
2007,03,12,04,30,20.00
2007,03,12,04,31,20.90
2007,03,12,04,32,16.70
2007,03,12,04,33,17.30
2007,03,12,04,34,17.80
2007,03,12,04,35,20.40
2007,03,12,04,36,12.50
2007,03,12,04,37,24.10
2007,03,12,04,38,16.70
2007,03,12,04,39,22.50
2007,03,12,04,40,18.50
2007,03,12,04,41,15.70
2007,03,12,04,42,18.10
2007,03,12,04,43,14.60
2007,03,12,04,44,15.80
2007,03,12,04,45,18.20
2007,03,12,04,46,14.60
2007,03,12,04,47,23.40
2007,03,12,04,48,25.90
2007,03,12,04,49,27.40
2007,03,12,04,50,18.90
2007,03,12,04,51,22.60
2007,03,12,04,52,26.90
2007,03,12,04,53,22.90
2007,03,12,04,54,20.20
2007,03,12,04,55,19.70
2007,03,12,04,56,28.40
2007,03,12,04,57,24.60
2007,03,12,04,58,41.50
2007,03,12,04,59,38.20
2007,03,12,05,00,23.40
2007,03,12,05,01,24.50
2007,03,12,05,02,28.20
2007,03,12,05,03,29.00
2007,03,12,05,04,28.30
2007,03,12,05,05,30.80
2007,03,12,05,06,35.80
2007,03,12,05,07,22.20
2007,03,12,05,08,33.30
2007,03,12,05,09,27.60
2007,03,12,05,10,25.90
2007,03,12,05,11,18.40
2007,03,12,05,12,20.10
2007,03,12,05,13,26.90
2007,03,12,05,14,24.70
2007,03,12,05,15,30.50
2007,03,12,05,16,27.00
2007,03,12,05,17,28.00
2007,03,12,05,18,26.90
2007,03,12,05,19,23.20
2007,03,12,05,20,14.60
2007,03,12,05,21,34.50
2007,03,12,05,22,18.80
2007,03,12,05,23,12.50
2007,03,12,05,24,18.20
2007,03,12,05,25,18.40
2007,03,12,05,26,15.70
2007,03,12,05,27,18.60
2007,03,12,05,28,17.70
2007,03,12,05,29,17.60
2007,03,12,05,30,13.50
2007,03,12,05,31,15.00
2007,03,12,05,32,19.60
2007,03,12,05,33,14.90
2007,03,12,05,34,14.00
2007,03,12,05,35,18.00
2007,03,12,05,36,10.50
2007,03,12,05,37,19.10
2007,03,12,05,38,15.10
2007,03,12,05,39,16.30
2007,03,12,05,40,11.00
2007,03,12,05,41,24.90
2007,03,12,05,42,16.80
2007,03,12,05,43,15.80
2007,03,12,05,44,18.40
2007,03,12,05,45,13.70
2007,03,12,05,46,15.50
2007,03,12,05,47,14.30
2007,03,12,05,48,17.10
2007,03,12,05,49,10.20
2007,03,12,05,50,6.10
2007,03,12,05,51,12.90
2007,03,12,05,52,10.70
2007,03,12,05,53,13.30
2007,03,12,05,54,5.90
2007,03,12,05,55,4.20
2007,03,12,05,56,9.80
2007,03,12,05,57,14.30
2007,03,12,05,58,14.20
2007,03,12,05,59,6.70
2007,03,12,06,00,11.80
2007,03,12,06,01,5.50
2007,03,12,06,02,5.20
2007,03,12,06,03,10.70
2007,03,12,06,04,10.90
2007,03,12,06,05,17.00
2007,03,12,06,06,7.90
2007,03,12,06,07,10.60
2007,03,12,06,08,10.60
2007,03,12,06,09,14.10
2007,03,12,06,10,15.00
2007,03,12,06,11,11.30
2007,03,12,06,12,18.60
2007,03,12,06,13,9.10
2007,03,12,06,14,5.20
2007,03,12,06,15,7.90
2007,03,12,06,16,9.60
2007,03,12,06,17,12.20
2007,03,12,06,18,8.50
2007,03,12,06,19,3.70
2007,03,12,06,20,3.10
2007,03,12,06,21,2.00
2007,03,12,06,22,12.40
2007,03,12,06,23,1.90
2007,03,12,06,24,9.20
2007,03,12,06,25,8.00
2007,03,12,06,26,0.40
2007,03,12,06,27,3.40
2007,03,12,06,28,8.00
2007,03,12,06,29,8.90
2007,03,12,06,30,5.70
2007,03,12,06,31,3.90
2007,03,12,06,32,3.70
2007,03,12,06,33,4.40
2007,03,12,06,34,1.50
2007,03,12,06,35,0.70
2007,03,12,06,36,0.00
2007,03,12,06,37,0.60
2007,03,12,06,38,4.70
2007,03,12,06,39,3.50
2007,03,12,06,40,0.50
2007,03,12,06,41,0.00
2007,03,12,06,42,3.10
2007,03,12,06,43,4.30
2007,03,12,06,44,13.30
2007,03,12,06,45,7.20
2007,03,12,06,46,3.50
2007,03,12,06,47,1.10
2007,03,12,06,48,0.20
2007,03,12,06,49,0.60
2007,03,12,06,50,8.30
2007,03,12,06,51,7.90
2007,03,12,06,52,6.90
2007,03,12,06,53,10.30
2007,03,12,06,54,7.50
2007,03,12,06,55,3.40
2007,03,12,06,56,3.60
2007,03,12,06,57,2.60
2007,03,12,06,58,3.30
2007,03,12,06,59,3.20
2007,03,12,07,00,1.30
2007,03,12,07,01,0.60
2007,03,12,07,02,0.30
2007,03,12,07,03,0.30
2007,03,12,07,04,3.50
2007,03,12,07,05,3.70
2007,03,12,07,06,0.80
2007,03,12,07,07,2.20
2007,03,12,07,08,0.70
2007,03,12,07,09,2.00
2007,03,12,07,10,4.20
2007,03,12,07,11,3.10
2007,03,12,07,12,1.10
2007,03,12,07,13,0.20
2007,03,12,07,14,0.40
2007,03,12,07,15,0.80
2007,03,12,07,16,1.70
2007,03,12,07,17,0.70
2007,03,12,07,18,1.40
2007,03,12,07,19,1.30
2007,03,12,07,20,1.60
2007,03,12,07,21,3.30
2007,03,12,07,22,3.40
2007,03,12,07,23,1.80
2007,03,12,07,24,0.80
2007,03,12,07,25,1.00
2007,03,12,07,26,0.60
2007,03,12,07,27,0.00
2007,03,12,07,28,1.00
2007,03,12,07,29,0.20
2007,03,12,07,30,1.60
2007,03,12,07,31,8.30
2007,03,12,07,32,5.90
2007,03,12,07,33,3.70
2007,03,12,07,34,0.90
2007,03,12,07,35,1.30
2007,03,12,07,36,1.20
2007,03,12,07,37,6.80
2007,03,12,07,38,4.20
2007,03,12,07,39,2.60
2007,03,12,07,40,0.80
2007,03,12,07,41,0.70
2007,03,12,07,42,3.10
2007,03,12,07,43,4.20
2007,03,12,07,44,3.20
2007,03,12,07,45,1.60
2007,03,12,07,46,2.20
2007,03,12,07,47,4.10
2007,03,12,07,48,3.20
2007,03,12,07,49,2.00
2007,03,12,07,50,0.80
2007,03,12,07,51,4.50
2007,03,12,07,52,1.90
2007,03,12,07,53,5.20
2007,03,12,07,54,8.50
2007,03,12,07,55,3.70
2007,03,12,07,56,14.60
2007,03,12,07,57,4.30
2007,03,12,07,58,7.70
2007,03,12,07,59,7.50
2007,03,12,08,00,5.10
2007,03,12,08,01,9.30
2007,03,12,08,02,2.20
2007,03,12,08,03,10.30
2007,03,12,08,04,8.20
2007,03,12,08,05,4.80
2007,03,12,08,06,0.50
2007,03,12,08,07,4.80
2007,03,12,08,08,1.40
2007,03,12,08,09,0.70
2007,03,12,08,10,0.20
2007,03,12,08,11,0.60
2007,03,12,08,12,2.70
2007,03,12,08,13,2.60
2007,03,12,08,14,3.70
2007,03,12,08,15,2.10
2007,03,12,08,16,2.00
2007,03,12,08,17,4.00
2007,03,12,08,18,1.40
2007,03,12,08,19,1.60
2007,03,12,08,20,0.40
2007,03,12,08,21,0.00
2007,03,12,08,22,0.60
2007,03,12,08,23,2.30
2007,03,12,08,24,0.40
2007,03,12,08,25,0.00
2007,03,12,08,26,0.00
2007,03,12,08,27,0.00
2007,03,12,08,28,2.70
2007,03,12,08,29,1.00
2007,03,12,08,30,0.00
2007,03,12,08,31,0.00
2007,03,12,08,32,0.00
2007,03,12,08,33,0.10
2007,03,12,08,34,0.00
2007,03,12,08,35,0.00
2007,03,12,08,36,0.00
2007,03,12,08,37,0.10
2007,03,12,08,38,0.00
2007,03,12,08,39,1.10
2007,03,12,08,40,2.30
2007,03,12,08,41,2.70
2007,03,12,08,42,3.20
2007,03,12,08,43,1.50
2007,03,12,08,44,0.20
2007,03,12,08,45,1.90
2007,03,12,08,46,0.00
2007,03,12,08,47,0.00
2007,03,12,08,48,1.20
2007,03,12,08,49,2.90
2007,03,12,08,50,2.60
2007,03,12,08,51,2.00
2007,03,12,08,52,2.70
2007,03,12,08,53,5.20
2007,03,12,08,54,6.40
2007,03,12,08,55,5.40
2007,03,12,08,56,3.00
2007,03,12,08,57,1.40
2007,03,12,08,58,6.90
2007,03,12,08,59,4.60
2007,03,12,09,00,3.50
2007,03,12,09,01,4.70
2007,03,12,09,02,3.70
2007,03,12,09,03,1.90
2007,03,12,09,04,2.30
2007,03,12,09,05,2.50
2007,03,12,09,06,1.60
2007,03,12,09,07,1.20
2007,03,12,09,08,3.10
2007,03,12,09,09,8.90
2007,03,12,09,10,12.70
2007,03,12,09,11,7.60
2007,03,12,09,12,8.50
2007,03,12,09,13,5.80
2007,03,12,09,14,5.00
2007,03,12,09,15,7.90
2007,03,12,09,16,5.80
2007,03,12,09,17,6.50
2007,03,12,09,18,10.10
2007,03,12,09,19,11.50
2007,03,12,09,20,6.40
2007,03,12,09,21,8.70
2007,03,12,09,22,6.50
2007,03,12,09,23,6.40
2007,03,12,09,24,5.40
2007,03,12,09,25,7.50
2007,03,12,09,26,8.40
2007,03,12,09,27,10.50
2007,03,12,09,28,3.80
2007,03,12,09,29,3.70
2007,03,12,09,30,3.40
2007,03,12,09,31,5.30
2007,03,12,09,32,5.10
2007,03,12,09,33,16.30
2007,03,12,09,34,6.60
2007,03,12,09,35,10.50
2007,03,12,09,36,15.40
2007,03,12,09,37,9.70
2007,03,12,09,38,16.00
2007,03,12,09,39,10.50
2007,03,12,09,40,7.80
2007,03,12,09,41,4.80
2007,03,12,09,42,4.20
2007,03,12,09,43,16.10
2007,03,12,09,44,9.20
2007,03,12,09,45,9.80
2007,03,12,09,46,16.10
2007,03,12,09,47,16.10
2007,03,12,09,48,6.40
2007,03,12,09,49,8.20
2007,03,12,09,50,7.90
2007,03,12,09,51,4.60
2007,03,12,09,52,4.50
2007,03,12,09,53,6.40
2007,03,12,09,54,10.20
2007,03,12,09,55,6.70
2007,03,12,09,56,4.00
2007,03,12,09,57,0.70
2007,03,12,09,58,2.80
2007,03,12,09,59,7.50
2007,03,12,10,00,4.20
2007,03,12,10,01,8.80
2007,03,12,10,02,6.80
2007,03,12,10,03,6.40
2007,03,12,10,04,2.00
2007,03,12,10,05,3.80
2007,03,12,10,06,3.60
2007,03,12,10,07,1.10
2007,03,12,10,08,3.50
2007,03,12,10,09,5.60
2007,03,12,10,10,7.00
2007,03,12,10,11,8.10
2007,03,12,10,12,7.00
2007,03,12,10,13,7.00
2007,03,12,10,14,2.80
2007,03,12,10,15,2.60
2007,03,12,10,16,6.00
2007,03,12,10,17,5.50
2007,03,12,10,18,6.40
2007,03,12,10,19,2.20
2007,03,12,10,20,4.30
2007,03,12,10,21,5.20
2007,03,12,10,22,5.60
2007,03,12,10,23,4.80
2007,03,12,10,24,7.00
2007,03,12,10,25,5.70
2007,03,12,10,26,5.00
2007,03,12,10,27,2.50
2007,03,12,10,28,3.50
2007,03,12,10,29,5.90
2007,03,12,10,30,3.70
2007,03,12,10,31,1.80
2007,03,12,10,32,4.90
2007,03,12,10,33,9.50
2007,03,12,10,34,9.30
2007,03,12,10,35,5.90
2007,03,12,10,36,11.90
2007,03,12,10,37,6.90
2007,03,12,10,38,9.10
2007,03,12,10,39,15.70
2007,03,12,10,40,10.30
2007,03,12,10,41,6.10
2007,03,12,10,42,5.60
2007,03,12,10,43,10.30
2007,03,12,10,44,10.50
2007,03,12,10,45,8.40
2007,03,12,10,46,9.30
2007,03,12,10,47,12.30
2007,03,12,10,48,5.40
2007,03,12,10,49,6.80
2007,03,12,10,50,9.90
2007,03,12,10,51,4.20
2007,03,12,10,52,4.80
2007,03,12,10,53,10.00
2007,03,12,10,54,9.30
2007,03,12,10,55,4.30
2007,03,12,10,56,3.90
2007,03,12,10,57,6.60
2007,03,12,10,58,6.00
2007,03,12,10,59,6.40
2007,03,12,11,00,4.60
2007,03,12,11,01,3.20
2007,03,12,11,02,3.50
2007,03,12,11,03,5.90
2007,03,12,11,04,9.10
2007,03,12,11,05,5.50
2007,03,12,11,06,7.70
2007,03,12,11,07,8.00
2007,03,12,11,08,8.10
2007,03,12,11,09,2.20
2007,03,12,11,10,5.30
2007,03,12,11,11,11.70
2007,03,12,11,12,4.60
2007,03,12,11,13,3.90
2007,03,12,11,14,1.00
2007,03,12,11,15,2.30
2007,03,12,11,16,2.80
2007,03,12,11,17,4.00
2007,03,12,11,18,4.80
2007,03,12,11,19,3.20
2007,03,12,11,20,8.90
2007,03,12,11,21,7.40
2007,03,12,11,22,6.60
2007,03,12,11,23,7.70
2007,03,12,11,24,12.40
2007,03,12,11,25,8.70
2007,03,12,11,26,5.80
2007,03,12,11,27,12.40
2007,03,12,11,28,14.30
2007,03,12,11,29,11.40
2007,03,12,11,30,6.10
2007,03,12,11,31,6.30
2007,03,12,11,32,6.60
2007,03,12,11,33,4.70
2007,03,12,11,34,7.20
2007,03,12,11,35,13.30
2007,03,12,11,36,8.60
2007,03,12,11,37,9.70
2007,03,12,11,38,10.90
2007,03,12,11,39,6.40
2007,03,12,11,40,8.40
2007,03,12,11,41,5.80
2007,03,12,11,42,4.30
2007,03,12,11,43,3.60
2007,03,12,11,44,3.60
2007,03,12,11,45,14.60
2007,03,12,11,46,10.60
2007,03,12,11,47,13.00
2007,03,12,11,48,14.20
2007,03,12,11,49,10.60
2007,03,12,11,50,12.90
2007,03,12,11,51,12.10
2007,03,12,11,52,12.10
2007,03,12,11,53,11.70
2007,03,12,11,54,12.90
2007,03,12,11,55,8.30
2007,03,12,11,56,12.20
2007,03,12,11,57,6.80
2007,03,12,11,58,8.10
2007,03,12,11,59,11.20
2007,03,12,12,00,12.60
2007,03,12,12,01,10.60
2007,03,12,12,02,13.10
2007,03,12,12,03,14.60
2007,03,12,12,04,10.40
2007,03,12,12,05,8.40
2007,03,12,12,06,10.60
2007,03,12,12,07,12.50
2007,03,12,12,08,14.50
2007,03,12,12,09,16.30
2007,03,12,12,10,14.50
2007,03,12,12,11,12.60
2007,03,12,12,12,7.80
2007,03,12,12,13,8.40
2007,03,12,12,14,13.60
2007,03,12,12,15,4.90
2007,03,12,12,16,9.30
2007,03,12,12,17,10.50
2007,03,12,12,18,9.30
2007,03,12,12,19,5.10
2007,03,12,12,20,2.50
2007,03,12,12,21,5.20
2007,03,12,12,22,2.80
2007,03,12,12,23,4.80
2007,03,12,12,24,5.00
2007,03,12,12,25,11.00
2007,03,12,12,26,7.20
2007,03,12,12,27,8.90
2007,03,12,12,28,2.90
2007,03,12,12,29,7.10
2007,03,12,12,30,7.40
2007,03,12,12,31,11.60
2007,03,12,12,32,6.80
2007,03,12,12,33,9.70
2007,03,12,12,34,6.10
2007,03,12,12,35,9.20
2007,03,12,12,36,10.00
2007,03,12,12,37,4.70
2007,03,12,12,38,19.20
2007,03,12,12,39,13.00
2007,03,12,12,40,6.40
2007,03,12,12,41,6.20
2007,03,12,12,42,11.50
2007,03,12,12,43,11.70
2007,03,12,12,44,9.90
2007,03,12,12,45,12.20
2007,03,12,12,46,10.10
2007,03,12,12,47,11.20
2007,03,12,12,48,15.10
2007,03,12,12,49,15.10
2007,03,12,12,50,16.40
2007,03,12,12,51,10.90
2007,03,12,12,52,14.90
2007,03,12,12,53,7.50
2007,03,12,12,54,13.70
2007,03,12,12,55,14.60
2007,03,12,12,56,12.90
2007,03,12,12,57,15.00
2007,03,12,12,58,12.90
2007,03,12,12,59,5.90
2007,03,12,13,00,4.90
2007,03,12,13,01,8.40
2007,03,12,13,02,16.20
2007,03,12,13,03,12.10
2007,03,12,13,04,9.40
2007,03,12,13,05,13.40
2007,03,12,13,06,12.00
2007,03,12,13,07,6.40
2007,03,12,13,08,7.00
2007,03,12,13,09,7.10
2007,03,12,13,10,4.90
2007,03,12,13,11,11.60
2007,03,12,13,12,12.50
2007,03,12,13,13,14.80
2007,03,12,13,14,13.00
2007,03,12,13,15,6.20
2007,03,12,13,16,15.30
2007,03,12,13,17,13.80
2007,03,12,13,18,14.10
2007,03,12,13,19,11.00
2007,03,12,13,20,7.80
2007,03,12,13,21,11.10
2007,03,12,13,22,4.60
2007,03,12,13,23,6.00
2007,03,12,13,24,8.10
2007,03,12,13,25,8.90
2007,03,12,13,26,12.60
2007,03,12,13,27,10.80
2007,03,12,13,28,12.60
2007,03,12,13,29,8.10
2007,03,12,13,30,10.60
2007,03,12,13,31,7.90
2007,03,12,13,32,9.10
2007,03,12,13,33,13.80
2007,03,12,13,34,11.80
2007,03,12,13,35,15.20
2007,03,12,13,36,8.30
2007,03,12,13,37,5.10
2007,03,12,13,38,9.30
2007,03,12,13,39,9.00
2007,03,12,13,40,10.80
2007,03,12,13,41,7.00
2007,03,12,13,42,5.70
2007,03,12,13,43,4.80
2007,03,12,13,44,6.70
2007,03,12,13,45,13.00
2007,03,12,13,46,10.90
2007,03,12,13,47,9.00
2007,03,12,13,48,5.10
2007,03,12,13,49,9.90
2007,03,12,13,50,13.60
2007,03,12,13,51,12.00
2007,03,12,13,52,3.00
2007,03,12,13,53,5.80
2007,03,12,13,54,9.30
2007,03,12,13,55,10.90
2007,03,12,13,56,13.00
2007,03,12,13,57,9.00
2007,03,12,13,58,16.90
2007,03,12,13,59,3.70
2007,03,12,14,00,8.20
2007,03,12,14,01,8.70
2007,03,12,14,02,6.40
2007,03,12,14,03,6.40
2007,03,12,14,04,11.70
2007,03,12,14,05,9.60
2007,03,12,14,06,2.60
2007,03,12,14,07,5.10
2007,03,12,14,08,12.50
2007,03,12,14,09,10.90
2007,03,12,14,10,1.50
2007,03,12,14,11,7.90
2007,03,12,14,12,9.70
2007,03,12,14,13,12.20
2007,03,12,14,14,13.30
2007,03,12,14,15,7.30
2007,03,12,14,16,4.70
2007,03,12,14,17,6.80
2007,03,12,14,18,8.90
2007,03,12,14,19,7.20
2007,03,12,14,20,4.70
2007,03,12,14,21,13.30
2007,03,12,14,22,8.60
2007,03,12,14,23,12.10
2007,03,12,14,24,6.40
2007,03,12,14,25,11.70
2007,03,12,14,26,18.10
2007,03,12,14,27,16.10
2007,03,12,14,28,6.20
2007,03,12,14,29,7.60
2007,03,12,14,30,7.00
2007,03,12,14,31,12.80
2007,03,12,14,32,9.10
2007,03,12,14,33,4.10
2007,03,12,14,34,3.00
2007,03,12,14,35,7.50
2007,03,12,14,36,6.40
2007,03,12,14,37,6.70
2007,03,12,14,38,4.40
2007,03,12,14,39,7.10
2007,03,12,14,40,10.90
2007,03,12,14,41,10.80
2007,03,12,14,42,7.20
2007,03,12,14,43,7.90
2007,03,12,14,44,10.70
2007,03,12,14,45,16.00
2007,03,12,14,46,11.60
2007,03,12,14,47,8.20
2007,03,12,14,48,12.70
2007,03,12,14,49,13.50
2007,03,12,14,50,14.00
2007,03,12,14,51,4.60
2007,03,12,14,52,14.30
2007,03,12,14,53,10.30
2007,03,12,14,54,6.80
2007,03,12,14,55,5.60
2007,03,12,14,56,1.20
2007,03,12,14,57,7.10
2007,03,12,14,58,9.80
2007,03,12,14,59,9.10
2007,03,12,15,00,5.80
2007,03,12,15,01,4.70
2007,03,12,15,02,6.70
2007,03,12,15,03,4.50
2007,03,12,15,04,4.70
2007,03,12,15,05,2.80
2007,03,12,15,06,6.40
2007,03,12,15,07,9.60
2007,03,12,15,08,11.60
2007,03,12,15,09,10.80
2007,03,12,15,10,12.30
2007,03,12,15,11,13.60
2007,03,12,15,12,7.80
2007,03,12,15,13,12.10
2007,03,12,15,14,24.60
2007,03,12,15,15,10.10
2007,03,12,15,16,10.50
2007,03,12,15,17,6.40
2007,03,12,15,18,10.10
2007,03,12,15,19,5.30
2007,03,12,15,20,3.50
2007,03,12,15,21,7.20
2007,03,12,15,22,7.20
2007,03,12,15,23,4.20
2007,03,12,15,24,11.60
2007,03,12,15,25,8.70
2007,03,12,15,26,8.40
2007,03,12,15,27,1.80
2007,03,12,15,28,2.30
2007,03,12,15,29,9.20
2007,03,12,15,30,10.10
2007,03,12,15,31,9.10
2007,03,12,15,32,3.40
2007,03,12,15,33,7.40
2007,03,12,15,34,5.50
2007,03,12,15,35,12.60
2007,03,12,15,36,8.60
2007,03,12,15,37,18.20
2007,03,12,15,38,14.50
2007,03,12,15,39,11.30
2007,03,12,15,40,9.70
2007,03,12,15,41,6.80
2007,03,12,15,42,15.40
2007,03,12,15,43,16.90
2007,03,12,15,44,20.90
2007,03,12,15,45,16.10
2007,03,12,15,46,10.10
2007,03,12,15,47,9.60
2007,03,12,15,48,6.50
2007,03,12,15,49,14.90
2007,03,12,15,50,13.90
2007,03,12,15,51,11.50
2007,03,12,15,52,10.30
2007,03,12,15,53,10.80
2007,03,12,15,54,9.90
2007,03,12,15,55,5.00
2007,03,12,15,56,6.40
2007,03,12,15,57,5.50
2007,03,12,15,58,4.90
2007,03,12,15,59,5.80
2007,03,12,16,00,9.00
2007,03,12,16,01,9.90
2007,03,12,16,02,8.70
2007,03,12,16,03,9.20
2007,03,12,16,04,9.90
2007,03,12,16,05,12.30
2007,03,12,16,06,13.50
2007,03,12,16,07,8.40
2007,03,12,16,08,9.20
2007,03,12,16,09,8.30
2007,03,12,16,10,11.40
2007,03,12,16,11,10.40
2007,03,12,16,12,9.00
2007,03,12,16,13,11.10
2007,03,12,16,14,6.20
2007,03,12,16,15,15.00
2007,03,12,16,16,9.80
2007,03,12,16,17,11.60
2007,03,12,16,18,16.40
2007,03,12,16,19,8.60
2007,03,12,16,20,4.00
2007,03,12,16,21,5.90
2007,03,12,16,22,12.00
2007,03,12,16,23,9.60
2007,03,12,16,24,5.80
2007,03,12,16,25,10.70
2007,03,12,16,26,6.30
2007,03,12,16,27,9.70
2007,03,12,16,28,5.10
2007,03,12,16,29,6.40
2007,03,12,16,30,6.80
2007,03,12,16,31,14.90
2007,03,12,16,32,8.90
2007,03,12,16,33,5.10
2007,03,12,16,34,5.30
2007,03,12,16,35,8.90
2007,03,12,16,36,8.40
2007,03,12,16,37,7.30
2007,03,12,16,38,5.80
2007,03,12,16,39,7.60
2007,03,12,16,40,10.10
2007,03,12,16,41,9.20
2007,03,12,16,42,4.30
2007,03,12,16,43,1.00
2007,03,12,16,44,6.30
2007,03,12,16,45,6.30
2007,03,12,16,46,5.20
2007,03,12,16,47,9.70
2007,03,12,16,48,14.40
2007,03,12,16,49,10.80
2007,03,12,16,50,7.00
2007,03,12,16,51,5.00
2007,03,12,16,52,2.80
2007,03,12,16,53,11.70
2007,03,12,16,54,6.80
2007,03,12,16,55,3.60
2007,03,12,16,56,6.50
2007,03,12,16,57,8.50
2007,03,12,16,58,11.20
2007,03,12,16,59,7.10
2007,03,12,17,00,11.60
2007,03,12,17,01,9.80
2007,03,12,17,02,6.40
2007,03,12,17,03,6.20
2007,03,12,17,04,8.90
2007,03,12,17,05,5.50
2007,03,12,17,06,7.30
2007,03,12,17,07,1.40
2007,03,12,17,08,3.60
2007,03,12,17,09,6.90
2007,03,12,17,10,9.60
2007,03,12,17,11,8.60
2007,03,12,17,12,5.40
2007,03,12,17,13,8.10
2007,03,12,17,14,5.30
2007,03,12,17,15,3.10
2007,03,12,17,16,6.40
2007,03,12,17,17,4.00
2007,03,12,17,18,1.80
2007,03,12,17,19,3.40
2007,03,12,17,20,4.90
2007,03,12,17,21,4.00
2007,03,12,17,22,4.30
2007,03,12,17,23,11.70
2007,03,12,17,24,6.50
2007,03,12,17,25,5.30
2007,03,12,17,26,4.30
2007,03,12,17,27,9.10
2007,03,12,17,28,8.10
2007,03,12,17,29,8.20
2007,03,12,17,30,5.50
2007,03,12,17,31,5.30
2007,03,12,17,32,5.20
2007,03,12,17,33,1.70
2007,03,12,17,34,3.80
2007,03,12,17,35,3.50
2007,03,12,17,36,3.90
2007,03,12,17,37,3.50
2007,03,12,17,38,8.30
2007,03,12,17,39,5.20
2007,03,12,17,40,6.40
2007,03,12,17,41,9.90
2007,03,12,17,42,5.90
2007,03,12,17,43,6.80